This demonstration page uses our WeatherBlox Daily Observations layout. Learn more.

Left ArrowRight Arrow

36.17497, -115.13722

Hourly Observations for April 18, 2017

Temp ( °F °C ) Dew Point ( °F °C ) Humidity (%) Winds ( mph kmh ) Pressure ( in mb ) Visibility ( mi km ) Precip ( " mm )
12:53 am 00:53 Clear 71 21.7 44 6.7 38 38 SW 18 30 29.88 1012 10 16.0934 N/A
1:53 am 01:53 Clear 68 20 45 7.2 44 44 S 13 20 29.87 1012 10 16.0934 N/A
2:53 am 02:53 Clear 69 20.6 43 6.1 39 39 SSW 8 13 29.87 1012 10 16.0934 N/A
3:53 am 03:53 Clear 69 20.6 42 5.6 38 38 SW 13 20 29.87 1011 10 16.0934 N/A
4:53 am 04:53 Clear 68 20 43 6.1 40 40 SSW 14 22 29.87 1012 10 16.0934 N/A
5:53 am 05:53 Clear 65 18.3 43 6.1 45 45 WNW 8 13 29.88 1012 10 16.0934 N/A
6:53 am 06:53 Sunny 66 18.9 43 6.1 43 43 WNW 5 7 29.91 1013 10 16.0934 N/A
7:53 am 07:53 Sunny 67 19.4 43 6.1 42 42 N N/A 29.92 1013 10 16.0934 N/A
8:53 am 08:53 Sunny 71 21.7 43 6.1 36 36 N N/A 29.92 1013 10 16.0934 N/A
9:53 am 09:53 Sunny 74 23.3 44 6.7 34 34 SE 6 9 29.91 1013 10 16.0934 N/A
10:34 am 10:34 Sunny 79 26 41 5 26 26 SW 22 35 29.77 1008 10 16.0934 N/A
10:53 am 10:53 Sunny 80 26.7 41 5 25 25 SW 23 37 29.88 1012 10 16.0934 N/A
11:53 am 11:53 Sunny 81 27.2 40 4.4 23 23 SW 17 28 29.87 1012 10 16.0934 N/A
12:53 pm 12:53 Mostly Sunny 84 28.9 38 3.3 19 19 WSW 22 35 29.86 1011 10 16.0934 N/A
1:53 pm 13:53 Partly Cloudy 83 28.3 40 4.4 22 22 W 25 41 29.86 1011 10 16.0934 N/A
2:53 pm 14:53 Partly Cloudy 84 28.9 42 5.6 23 23 WSW 16 26 29.85 1011 10 16.0934 N/A
3:53 pm 15:53 Mostly Sunny 79 26.1 46 7.8 31 31 WNW 10 17 29.86 1011 10 16.0934 N/A
4:53 pm 16:53 Sunny 80 26.7 40 4.4 24 24 WNW 15 24 29.85 1011 10 16.0934 N/A
5:53 pm 17:53 Mostly Sunny 79 26.1 43 6.1 28 28 SSW 14 22 29.87 1011 10 16.0934 N/A
6:53 pm 18:53 Sunny 77 25 42 5.6 29 29 WSW 20 31 29.85 1011 10 16.0934 N/A
7:53 pm 19:53 Clear 75 23.9 40 4.4 28 28 WSW 18 30 29.88 1012 10 16.0934 N/A
8:53 pm 20:53 Clear 74 23.3 39 3.9 28 28 W 20 31 29.89 1012 10 16.0934 N/A
9:53 pm 21:53 Clear 72 22.2 38 3.3 29 29 WSW 16 26 29.94 1014 10 16.0934 N/A
10:53 pm 22:53 Clear 71 21.7 37 2.8 29 29 W 16 26 29.93 1014 10 16.0934 N/A
11:53 pm 23:53 Clear 69 20.6 42 5.6 38 38 NNW 14 22 29.97 1015 10 16.0934 N/A

Powered by AerisWeather